Location: *
(34.0486°S, 61.7880°E)
Time: 14:51:19
(UTC+00:00)

Cosmos 923 Rocket - Pass Details

Date: 01 April 2020
Orbit: 759 x 785 km, 74.0° (Epoch: 26 May)

Event Time Altitude Azimuth Distance (km) Brightness Sun altitude
Exits shadow 23:42:09 60° 99° (E) 884 4.4 -30.4°
Drops below altitude 10° 23:46:59 10° 156° (SSE) 2,336 6.9 -29.4°
Sets 23:49:25 0° 158° (SSE) 3,274 7.7 -28.9°
